Location: Untermarchtal
(48.2403°N, 9.6117°E)
Time: 04:15:37
(UTC+01:00)

ISS - Visible Passes

Search period start: 22 February 2018 00:00
Search period end: 04 March 2018 00:00
Orbit: 403 x 407 km, 51.6° (Epoch: 22 February)

Date Brightness Start Highest point End Pass type
(mag) Time Alt. Az. Time Alt. Az. Time Alt. Az.
26 Feb -1.0 06:24:35 10° S 06:26:47 17° SE 06:28:59 10° E visible
28 Feb -2.2 06:15:30 10° SSW 06:18:28 32° SE 06:21:27 10° E visible
01 Mar -1.5 05:24:06 11° S 05:26:21 20° SE 05:28:50 10° E visible
02 Mar -0.9 04:34:15 12° SE 04:34:18 12° SE 04:35:38 10° ESE visible
02 Mar -3.4 06:06:59 10° SW 06:10:14 62° SSE 06:13:29 10° ENE visible
03 Mar -2.7 05:16:56 29° S 05:17:59 38° SSE 05:21:05 10° ENE visible
